Regional Weather Roundup
Issued by NWS

Home | Current Version | Previous Version | Text Only | Print | Product List | Glossary On
Versions: 1 2 3 4 5 6 7 8 9 10 11 12 13 14 15 16 17 18 19 20 21 22 23 24 25 26 27 28 29 30 31 32 33 34 35 36 37 38 39 40 41 42 43 44 45 46 47 48 49 50
000
ASUS43 KMPX 240701
RWRMN
WEATHER ROUNDUP FOR MINNESOTA
NATIONAL WEATHER SERVICE TWIN CITIES/CHANHASSEN MN
200 AM CDT TUE OCT 24 2017


NOTE: "FAIR" INDICATES FEW OR NO CLOUDS BELOW 12,000 FEET WITH NO
SIGNIFICANT WEATHER AND/OR OBSTRUCTIONS TO VISIBILITY. N/A MEANS
CURRENT SKY AND/OR WEATHER CONDITIONS ARE NOT AVAILABLE.

MNZ060>063-068>070-240800-
   Twin Cities Metro

CITY           SKY/WX    TMP DP  RH WIND       PRES   REMARKS
TWIN CITIES    CLOUDY    42  31  64 NW17G29   29.83S
ST PAUL        CLOUDY    43  31  62 NW15      29.83S
CRYSTAL        CLOUDY    42  28  57 NW15      29.83S
BLAINE         CLOUDY    45  32  61 NW10      29.83S
LAKEVILLE      PTCLDY    39  30  70 NW16G24   29.82S
EDEN PRAIRIE   MOCLDY    43  30  60 NW21G31   29.83S
SOUTH ST PAUL  CLOUDY    43  30  59 NW13G21   29.82S
LAKE ELMO      CLOUDY    45  32  61 NW17      29.82S
$$
MNZ001>005-007-008-013>017-022>024-027-028-240800-
   Northwest Minnesota

CITY           SKY/WX    TMP DP  RH WIND       PRES   REMARKS
BEMIDJI        CLOUDY    38  28  67 N17       30.00F
HALLOCK        CLOUDY    36  28  75 NW13      30.17R
ROSEAU         CLEAR     37  28  70 N12       30.10S
WARROAD        CLEAR     36  28  75 NW14      30.08F
CROOKSTON      MOCLDY    36  30  80 N18G24    30.14F
FOSSTON        CLEAR     32  27  80 NW15      30.08S WCI  22
DETROIT LAKES  CLOUDY    36  30  80 N22G29    30.06S
MOORHEAD       MOCLDY    36  28  75 NW16      30.13F
PARK RAPIDS    CLOUDY    38  28  67 N22G32    29.98F
MAHNOMEN       FAIR      34  28  79 NW15G21   30.07F WCI  24
$$
MNZ006-009>011-018-025>026-240800-
   North Central Minnesota

CITY           SKY/WX    TMP DP  RH WIND       PRES   REMARKS
BAUDETTE       CLOUDY    40  29  64 NW17G29   30.02F
FLAG ISLAND    CLEAR     39  30  70 N25G31    30.06S
INTL FALLS     CLOUDY    38  29  70 N18G26    29.96S
WASKISH        CLOUDY    39  28  65 N12G18    30.01S
BIG FORK       CLOUDY    39  30  70 NW9G17    29.93S
LONGVILLE      CLOUDY    39  30  70 NW10G23   29.93S
GRAND RAPIDS   CLOUDY    40  32  73 N23       29.91R
CRANE LAKE     CLOUDY    37  34  87 N12G23    29.91S
ORR            CLOUDY    37  30  75 NW10G23   29.88R
COOK           CLOUDY    37  34  87 NW13G22   29.88R
WALKER         CLOUDY    38  28  69 NW20G25   29.97S
$$
MNZ012-019>021-037-240800-
   Northeast Minnesota

CITY           SKY/WX    TMP DP  RH WIND       PRES   REMARKS
DULUTH         CLOUDY    40  35  83 N23G36    29.75F
ELY            LGT RAIN  37  36  93 NW10G25   29.81S
HIBBING        CLOUDY    39  32  76 N22G33    29.85S
EVELETH        MOCLDY    40  37  87 N20G33    29.84R
DULUTH HARBOR  CLOUDY    45  37  76 NW17G28   29.79S
TWO HARBORS    MOCLDY    45  36  70 NW12G29   29.71S
SILVER BAY     CLOUDY    43  36  75 NW14G24   29.70S
GRAND MARAIS     N/A     48  41  76 N20G41    29.62F
G MARAIS ARPRT DRIZZLE   39  36  87 NW23G32   29.67F
$$
MNZ029>031-032-039>041-046>048-054>057-064-240800-
   West Central Minnesota

CITY           SKY/WX    TMP DP  RH WIND       PRES   REMARKS
FERGUS FALLS   PTCLDY    36  27  69 N21G29    30.08F
WHEATON        MOCLDY    36  28  75 NW20      30.12F
MORRIS         PTCLDY    37  27  65 N24G32    30.03F
ALEXANDRIA     CLOUDY    39  28  64 N23G32    30.00S
ELBOW LAKE     FAIR      37  29  73 NW21G29   30.05F
WADENA         CLOUDY    37  28  70 N13G22    29.99S
GLENWOOD       CLEAR     37  28  70 NW22      29.98S
APPLETON       PTCLDY    39  27  60 NW17G29   30.04F
BENSON         PTCLDY    37  28  70 N18G26    30.03R
ORTONVILLE     MOCLDY    37  28  70 N24G33    30.08S
MADISON        MOCLDY    41  28  60 N25G35    30.06F
WILLMAR        FAIR      37  30  75 NW14      29.98S
$$
MNZ033>034-036-042>043-049>051-058-059-240800-
   Central Minnesota

CITY           SKY/WX    TMP DP  RH WIND       PRES   REMARKS
ST CLOUD       CLOUDY    40  30  67 NW15G29   29.89R
SAUK CENTRE    PTSUNNY   38  28  68 NW21G35   29.96R
PAYNESVILLE    CLOUDY    38  30  73 NW17G23   29.95S
AITKIN         CLOUDY    39  32  75 NW17G23   29.87S
PINE RIVER     CLOUDY    39  30  70 N18G30    29.97S
BRAINERD       CLOUDY    43  33  68 N25G36    29.92R
STAPLES        CLOUDY    39  28  65 N21G28    29.96S
LONG PRAIRIE   CLOUDY    37  28  70 W17G24    29.96R
LITTLE FALLS   CLOUDY    39  25  56 NW9G21    29.91F
LITCHFIELD     PTCLDY    39  30  70 NW18G26   29.92F
BUFFALO        CLOUDY    40  29  63 NW13G22   29.89R
MAPLE LAKE     CLOUDY    41  32  69 NW15G23   29.90R
HUTCHINSON     MOCLDY    39  30  69 NW16G24   29.92S
$$
MNZ037-044-045-052-053-240800-
   East Central Minnesota

CITY           SKY/WX    TMP DP  RH WIND       PRES   REMARKS
PRINCETON      CLOUDY    43  32  65 NW12      29.87R
MORA           PTCLDY    39  32  75 N17G24    29.85F
CAMBRIDGE      MOCLDY    45  34  65 NW16G25   29.84S
RUSH CITY      CLOUDY    43  32  66 N14G23    29.83S
MOOSE LAKE     CLOUDY    41  32  70 N16G29    29.80F
HINCKLEY       CLOUDY    43  34  70 NW18G31   29.82S
CLOQUET        CLOUDY    41  30  65 NW17G36   29.78F
MCGREGOR       CLOUDY    41  34  75 NW20G26   29.86F
$$
MNZ071>073-080-081-089-090-097-098-240800-
   Southwest Minnesota

CITY           SKY/WX    TMP DP  RH WIND       PRES   REMARKS
MONTEVIDEO     CLEAR     37  28  70 N20G28    30.02
GRANITE FALLS  CLEAR     38  30  72 NW15G24   30.03S
CANBY          CLOUDY    39  30  70 NW21G31   30.07S
MARSHALL       CLOUDY    38  28  67 N26G36    30.02S
REDWOOD FALLS  CLOUDY    39  27  62 NW17G28   29.97R
OLIVIA         PTCLDY    36  28  75 NW14G22   29.96S
PIPESTONE      PTCLDY    39  28  65 N18G28    30.03S
WORTHINGTON    PTCLDY    38  30  73 NW24      29.99F
JACKSON        MOCLDY    37  30  75 NW20G35   29.95R
TRACY          MOCLDY    38  31  74 NW22G33   30.01S
SLAYTON        MOCLDY    38  27  64 NW33G40   29.99F
$$
MNZ065>067-074>077-082>085-091>093-240800-
   South Central Minnesota

CITY           SKY/WX    TMP DP  RH WIND       PRES   REMARKS
NEW ULM          N/A     39  27  60 NW17G29   29.93R
ST JAMES       PTCLDY    39  30  70 NW20G29   29.93S
FAIRMONT       CLOUDY    42  31  64 N31       29.90S
GLENCOE        MOCLDY    40  30  67 NW13G24   29.89S
FARIBAULT      PTCLDY    41  30  65 NW15G21   29.83F
OWATONNA       MOCLDY    41  30  65 NW20G25   29.83S
WASECA         MOCLDY    39  30  70 NW12G23   29.86S
$$
MNZ078>079-086>088-094>096-240800-
   Southeast Minnesota

CITY           SKY/WX    TMP DP  RH WIND       PRES   REMARKS
ROCHESTER      CLOUDY    42  31  64 NW22G29   29.76S
RED WING       CLOUDY    46  28  49 NW12G23   29.77S
STANTON        CLOUDY    43  31  62 NW22G28   29.80S
DODGE CENTER   CLOUDY    41  30  65 NW18G29   29.78F
WINONA         CLOUDY    48  36  61 NW16G22   29.72F
AUSTIN         CLOUDY    41  30  65 NW17G26   29.79S
PRESTON        CLOUDY    43  29  58 NW20G25   29.73F
$$
ABBREVIATIONS USED IN REMARKS
   TC - TEMPERATURES IN CELSIUS
  WCI - WIND CHILL INDEX
   HX - HEAT INDEX
  VSB - VISIBILITY
$$



USA.gov is the U.S. government's official web portal to all federal, state and local government web resources and services.